[[{"header":{"parameterUnit":"m.s-1","parameterCategory":1,"la1":30.2991,"la2":30.254,"lo1":-89.0895,"lo2":-89.0444,"dy":0.0017,"dx":0.0017,"nx":28,"ny":28,"refTime":"2024-07-30T21:00:00:Z","depth":0,"parameterNumber":2,"parameterNumberName":"U-component_of_WINDS"},"data":[0,0,0,0,0,0,0,0,0,0,0,0,0,0,0,0,0,0,0,0,0,0,0,0,0,0,0,0,0,0,0,0,0,0,0,0,0,0,0,0,0,0,0,0,0,0,0,0,0,0,0,0,0,0,0,0,0,0,1.4585,1.4585,0,1.4633,1.4633,1.4634,1.4591,1.4589,1.4587,1.4585,1.4639,1.4642,1.4645,0,0,0,0,0,0,0,0,0,0,0,0,0,1.4459,1.4462,1.4585,1.4585,1.4586,1.4633,1.4633,1.4634,1.4591,1.4589,1.4587,1.4585,1.4638,1.4641,1.4645,0,0,0,0,0,0,0,0,0,0,0,0,0,1.4511,1.4463,1.4584,1.457,1.4569,1.4633,1.4633,1.4634,1.4591,1.4589,1.4586,1.4584,1.4636,1.4641,1.4645,1.4727,0,0,1.466,1.4662,0,0,0,0,0,0,0,0,1.4509,1.4516,1.4571,1.4571,1.457,1.4603,1.4609,1.4666,1.4592,1.4583,1.4585,1.4582,1.4629,1.4634,1.4649,1.473,1.4732,1.466,1.4663,1.4665,1.4666,0,0,0,0,0,0,0,1.4505,1.4514,1.4604,1.4572,1.4572,1.4562,1.4567,1.4619,1.4621,1.4584,1.4581,1.4587,1.4628,1.4645,1.465,1.4733,1.466,1.4664,1.4667,1.4669,1.4885,1.4887,0,0,0,0,0,0,1.4502,1.4511,1.4602,1.4605,1.4532,1.4567,1.4572,1.4595,1.462,1.4621,1.4589,1.4584,1.4638,1.4645,1.4652,1.4751,1.4665,1.4669,1.4672,1.4882,1.4885,1.4888,0,0,0,0,0,0,1.45,1.4511,1.46,1.4557,1.4568,1.4572,1.4598,1.4598,1.4614,1.4624,1.4624,1.4605,1.4636,1.4645,1.4709,1.4752,1.4671,1.4675,1.4878,1.4883,1.4887,1.4948,0,0,0,0,0,0,1.4496,1.451,1.454,1.4558,1.457,1.4656,1.4601,1.46,1.4622,1.4616,1.4639,1.4641,1.4635,1.4702,1.4714,1.4757,1.4679,1.4874,1.488,1.4885,1.4942,1.4954,1.4964,0,0,0,0,0,1.4492,1.4556,1.4542,1.4553,1.4608,1.4658,1.4665,1.4656,1.4625,1.4656,1.4663,1.464,1.4745,1.4709,1.4721,1.4767,1.4872,1.4878,1.4885,1.4937,1.4952,1.4964,0,0,0,0,0,0,1.4544,1.4558,1.4543,1.4614,1.4635,1.4651,1.469,1.4672,1.4703,1.4697,1.4686,1.4691,1.4759,1.4769,1.4729,1.4848,1.4803,1.4813,1.4839,1.4853,1.4864,1.4861,1.4683,0,0,0,0,0,1.4564,1.4602,1.4613,1.4675,1.4686,1.4686,1.4708,1.4699,1.4721,1.473,1.4741,1.4764,1.4802,1.4828,1.4863,1.4943,1.4948,1.498,1.4991,1.5,1.5009,1.5054,1.5068,1.491,1.491,1.491,0,0,1.4605,1.4618,1.4643,1.4686,1.4701,1.4742,1.4694,1.4739,1.4771,1.4737,1.4798,1.4807,1.4832,1.4904,1.4937,1.4915,1.5054,1.5009,1.5016,1.502,1.5062,1.5077,1.509,1.4915,1.4914,1.4913,0,0,1.4702,1.4714,1.4768,1.4784,1.4808,1.4807,1.482,1.4839,1.4843,1.4904,1.488,1.4917,1.4983,1.5002,1.5021,1.5126,1.5107,1.5138,1.5196,1.5239,1.5252,1.5263,1.5302,1.5316,1.5146,1.5146,1.5146,0,1.4751,1.4811,1.4799,1.4846,1.4867,1.4837,1.4893,1.4909,1.4944,1.4959,1.4933,1.5016,1.5031,1.5108,1.5134,1.5149,1.5165,1.5136,1.525,1.5261,1.5272,1.5309,1.5323,1.515,1.5149,1.5149,1.5149,0,1.4871,1.4914,1.4955,1.4988,1.5013,1.5064,1.5061,1.5088,1.5077,1.508,1.5143,1.5159,1.5198,1.5216,1.5206,1.5292,1.5278,1.5252,1.5207,1.5291,1.5326,1.534,1.5155,1.5154,1.5153,1.5152,0,0,1.5004,1.5029,1.5044,1.506,1.5083,1.5117,1.5167,1.5204,1.5229,1.5253,1.5297,1.5353,1.5329,1.535,1.5342,1.538,1.5465,1.5349,1.535,1.5372,1.5563,1.5584,1.56,1.5451,1.5454,1.5456,1.5561,0,1.5103,1.519,1.518,1.5264,1.5304,1.5276,1.5321,1.5341,1.5345,1.5381,1.5385,1.5426,1.539,1.5403,1.5439,1.5447,1.5503,1.5439,1.5494,1.5496,1.549,1.5618,1.5641,1.5739,1.5575,1.5577,1.5579,0,1.523,1.5259,1.5347,1.5365,1.5382,1.5422,1.5456,1.5489,1.5512,1.5513,1.5536,1.5522,1.5574,1.5527,1.5601,1.5557,1.5579,1.5586,1.5589,1.5596,1.5543,1.563,1.577,1.5786,1.56,1.5598,1.5596,0,1.5321,1.5381,1.5442,1.5455,1.5478,1.5507,1.5518,1.5538,1.5561,1.5591,1.5607,1.5643,1.5663,1.5692,1.5688,1.5654,1.5763,1.5715,1.5767,1.5767,1.5793,1.5792,1.594,1.5804,1.5803,1.5803,1.5803,0,1.5434,1.5489,1.5483,1.552,1.5582,1.557,1.5632,1.5639,1.5658,1.5697,1.5675,1.5713,1.5705,1.5743,1.574,1.5803,1.5811,1.5814,1.5814,1.5818,1.5818,1.5833,1.5827,1.5807,1.5806,1.5805,1.5805,0,1.5546,1.5543,1.5608,1.5624,1.5629,1.5674,1.5688,1.5724,1.5726,1.5777,1.5788,1.5792,1.5836,1.5834,1.5884,1.5882,1.5959,1.5949,1.5951,1.595,1.6002,1.5998,1.6168,1.619,1.6037,1.6039,1.604,0,1.5619,1.5661,1.5681,1.5706,1.5718,1.5758,1.5782,1.5772,1.5798,1.5827,1.5861,1.5902,1.5935,1.6006,1.6014,1.6053,1.6045,1.6101,1.605,1.6054,1.6048,1.6046,1.6051,1.6112,1.6114,1.6115,1.6116,0,1.575,1.5747,1.5781,1.5816,1.5844,1.5871,1.5896,1.5917,1.5911,1.5941,1.5985,1.601,1.6061,1.6103,1.614,1.6152,1.6135,1.6132,1.6146,1.6152,1.6152,1.6155,1.5981,1.6129,1.6128,1.6127,1.6126,1.6125,1.5846,1.5883,1.5903,1.5942,1.596,1.5983,1.6018,1.6024,1.606,1.6101,1.6093,1.6143,1.6165,1.6213,1.6229,1.6268,1.6248,1.6269,1.6274,1.628,1.6286,1.6144,1.6275,1.6274,1.6274,1.6274,1.6273,0,1.5978,1.5989,1.6026,1.6061,1.6092,1.607,1.6096,1.6125,1.6168,1.619,1.6223,1.6274,1.6315,1.6326,1.6366,1.6395,1.6388,1.6406,1.6405,1.6409,1.6301,1.6286,1.6412,1.6412,1.6412,1.6412,1.6412,1.6412,1.605,1.6111,1.6111,1.6181,1.6192,1.624,1.6257,1.6279,1.6297,1.6355,1.6388,1.6394,1.6413,1.6453,1.649,1.6492,1.6509,1.6531,1.653,1.643,1.6416,1.6403,1.6388,1.6534,1.6534,1.6635,1.6636,1.6636]},{"header":{"parameterUnit":"m.s-1","parameterCategory":1,"la1":30.2991,"la2":30.254,"lo1":-89.0895,"lo2":-89.0444,"dy":0.0017,"dx":0.0017,"nx":28,"ny":28,"refTime":"2024-07-30T21:00:00:Z","depth":0,"parameterNumber":3,"parameterNumberName":"V-component_of_WINDS"},"data":[0,0,0,0,0,0,0,0,0,0,0,0,0,0,0,0,0,0,0,0,0,0,0,0,0,0,0,0,0,0,0,0,0,0,0,0,0,0,0,0,0,0,0,0,0,0,0,0,0,0,0,0,0,0,0,0,0,0,1.6532,1.6533,0,1.6636,1.6638,1.6639,1.6658,1.6657,1.6656,1.6656,1.6761,1.6765,1.6768,0,0,0,0,0,0,0,0,0,0,0,0,0,1.6345,1.6348,1.6532,1.6533,1.6535,1.6636,1.6638,1.6639,1.6658,1.6657,1.6656,1.6655,1.676,1.6764,1.6769,0,0,0,0,0,0,0,0,0,0,0,0,0,1.6435,1.6349,1.6532,1.6556,1.656,1.6636,1.6638,1.664,1.6658,1.6657,1.6656,1.6655,1.6759,1.6764,1.6769,1.6828,0,0,1.6786,1.6788,0,0,0,0,0,0,0,0,1.643,1.6442,1.6551,1.6555,1.6559,1.6633,1.6611,1.6703,1.6659,1.6621,1.6656,1.6654,1.672,1.6728,1.6751,1.6833,1.6838,1.6786,1.679,1.6792,1.6794,0,0,0,0,0,0,0,1.6424,1.6438,1.6573,1.6553,1.6557,1.6561,1.6572,1.6628,1.6676,1.6624,1.6626,1.6638,1.6721,1.6745,1.6753,1.6839,1.6786,1.6791,1.6794,1.6797,1.6971,1.6972,0,0,0,0,0,0,1.6414,1.6432,1.657,1.6576,1.649,1.6565,1.6578,1.661,1.6676,1.6684,1.6639,1.6638,1.6737,1.6747,1.6757,1.6827,1.6792,1.6797,1.68,1.6969,1.6971,1.6972,0,0,0,0,0,0,1.6409,1.6426,1.6566,1.6505,1.6523,1.657,1.6606,1.6613,1.6637,1.6687,1.6695,1.6655,1.6736,1.6749,1.6809,1.6831,1.6799,1.6804,1.6968,1.697,1.6972,1.697,0,0,0,0,0,0,1.6404,1.6424,1.6448,1.6505,1.6526,1.6618,1.6607,1.6616,1.6647,1.6647,1.6704,1.6712,1.6736,1.6801,1.6815,1.6838,1.6809,1.6966,1.6969,1.6971,1.6968,1.6972,1.6975,0,0,0,0,0,1.6397,1.6444,1.6449,1.6466,1.6557,1.6619,1.6631,1.6658,1.6648,1.6672,1.6703,1.671,1.6827,1.6807,1.6823,1.6848,1.6965,1.6968,1.6971,1.6967,1.6971,1.6975,0,0,0,0,0,0,1.6389,1.6452,1.6459,1.6526,1.6567,1.6622,1.6653,1.6662,1.6707,1.6705,1.6736,1.6749,1.6806,1.6833,1.6811,1.6906,1.6895,1.6901,1.6887,1.6891,1.6894,1.6886,1.6813,0,0,0,0,0,1.6395,1.6441,1.6493,1.6547,1.6567,1.6606,1.6635,1.6651,1.6695,1.6712,1.6748,1.679,1.6835,1.6865,1.691,1.6972,1.6983,1.6997,1.7,1.7002,1.7007,1.7039,1.7044,1.6983,1.6983,1.6983,0,0,1.6408,1.6448,1.6475,1.6546,1.658,1.6625,1.6621,1.667,1.6703,1.672,1.6778,1.6805,1.6853,1.6914,1.6942,1.6938,1.7026,1.7006,1.7008,1.7012,1.7042,1.7048,1.7053,1.6985,1.6984,1.6984,0,0,1.6454,1.649,1.6537,1.6571,1.6621,1.6647,1.6658,1.6711,1.673,1.6789,1.6801,1.684,1.6919,1.6951,1.6978,1.7032,1.7039,1.7046,1.7062,1.7092,1.7097,1.7102,1.7118,1.7124,1.705,1.705,1.705,0,1.6464,1.6533,1.6561,1.6608,1.6637,1.6654,1.67,1.6731,1.6794,1.6813,1.6807,1.6903,1.6937,1.7004,1.7016,1.7039,1.705,1.7039,1.7094,1.7099,1.7104,1.712,1.7126,1.7051,1.7051,1.7051,1.7051,0,1.654,1.6588,1.662,1.6679,1.6712,1.6759,1.6791,1.6821,1.6834,1.6859,1.6917,1.6957,1.7009,1.7026,1.704,1.7093,1.7089,1.7088,1.7078,1.7109,1.7125,1.7131,1.7051,1.7051,1.7051,1.7051,0,0,1.6586,1.6658,1.6669,1.6694,1.675,1.6786,1.6832,1.6882,1.6906,1.6947,1.6985,1.7049,1.7048,1.7078,1.7095,1.7122,1.7158,1.7118,1.7119,1.7122,1.7216,1.7215,1.7222,1.7163,1.7164,1.7165,1.7211,0,1.6637,1.6721,1.6745,1.6814,1.6856,1.6871,1.691,1.6947,1.6971,1.7009,1.7035,1.7079,1.7075,1.7093,1.712,1.7148,1.7177,1.7145,1.7196,1.7198,1.7183,1.7231,1.7231,1.7272,1.7218,1.7219,1.722,0,1.6709,1.675,1.6824,1.687,1.6889,1.6924,1.697,1.7007,1.7048,1.7063,1.7095,1.7109,1.7154,1.7141,1.7203,1.718,1.7202,1.7219,1.7221,1.7226,1.721,1.7235,1.7286,1.7292,1.723,1.7229,1.7228,0,1.6731,1.6806,1.6859,1.688,1.6937,1.6961,1.6985,1.7025,1.7052,1.7092,1.7109,1.7154,1.7178,1.7211,1.7235,1.7224,1.7294,1.7283,1.7306,1.7305,1.732,1.7318,1.7373,1.7336,1.7336,1.7336,1.7336,0,1.6785,1.6829,1.6869,1.6902,1.695,1.6976,1.7022,1.7047,1.7082,1.7117,1.7133,1.7165,1.7196,1.7233,1.7252,1.7298,1.731,1.7321,1.7326,1.7319,1.7318,1.7334,1.7331,1.7337,1.7337,1.7337,1.7336,0,1.6819,1.6848,1.6906,1.6954,1.6967,1.7,1.704,1.707,1.7093,1.7138,1.715,1.7186,1.7229,1.7256,1.7311,1.7324,1.7374,1.7379,1.736,1.7362,1.7382,1.7379,1.7449,1.7458,1.7416,1.7416,1.7416,0,1.6851,1.6885,1.6935,1.696,1.6985,1.7025,1.7052,1.7078,1.7106,1.7153,1.7177,1.7221,1.7258,1.7325,1.7355,1.7396,1.7401,1.7422,1.7407,1.7398,1.7398,1.7396,1.7398,1.7424,1.7425,1.7425,1.7425,0,1.6904,1.6915,1.6955,1.6998,1.703,1.7066,1.7101,1.712,1.7152,1.7182,1.7226,1.7254,1.7309,1.7351,1.7394,1.7417,1.7426,1.7429,1.7436,1.743,1.7417,1.7422,1.7365,1.7428,1.7428,1.7427,1.7427,1.7427,1.6936,1.6965,1.7005,1.7047,1.7076,1.7108,1.7138,1.7164,1.7201,1.7248,1.726,1.7306,1.7342,1.7401,1.7425,1.7459,1.7456,1.7467,1.7469,1.7471,1.747,1.7412,1.7467,1.7467,1.7467,1.7467,1.7467,0,1.6988,1.7013,1.7052,1.71,1.7132,1.7137,1.7175,1.7202,1.7241,1.7275,1.731,1.7358,1.7398,1.743,1.7471,1.7492,1.7497,1.7502,1.75,1.7505,1.7472,1.7461,1.7497,1.7497,1.7497,1.7497,1.7497,1.7497,1.7018,1.7067,1.7083,1.7145,1.717,1.7214,1.7235,1.7263,1.729,1.7344,1.7377,1.7398,1.743,1.7472,1.7508,1.7516,1.753,1.7534,1.7543,1.7511,1.7508,1.7504,1.7494,1.7537,1.7537,1.7573,1.7573,1.7573]}]]